Clear Lake, IA

12:22 PM CST on February 20, 2017 (GMT -0600)
Mason City Municipal

Weather History for KMCW - November, 2010

Change the Weather History Date:

Monday, November 22, 2010

  Actual Average Record
Temperature  
Mean Temperature 27 °F 30 °F  
Max Temperature 33 °F 39 °F 65 °F (1966)
Min Temperature 20 °F 21 °F -5 °F (1935)
Degree Days  
Heating Degree Days 38 35  
Month to date heating degree days 596 639  
Since 1 July heating degree days 1164 1377  
Cooling Degree Days 0 0  
Month to date cooling degree days 0 0  
Year to date cooling degree days 740 616  
Moisture  
Dew Point 28 °F    
Average Humidity 89    
Maximum Humidity 100    
Minimum Humidity 77    
Precipitation  
Precipitation 0.02 in 0.06 in 1.13 in (1963)
Month to date precipitation 2.47 1.44  
Year to date precipitation 28.78 33.52  
Snow  
Snow 0.00 in 0.10 in 6.40 in (1909)
Month to date snowfall T 2.4  
Since 1 July snowfall T 2.8  
Since 1 September snowfall T 2.8  
Snow Depth 0.00 in    
Sea Level Pressure  
Sea Level Pressure 29.80 in    
Wind  
Wind Speed 13 mph (North)    
Max Wind Speed 24 mph    
Max Gust Speed 30 mph    
Visibility 5 miles    
Events Rain    
T = Trace of Precipitation, MM = Missing Value Source: NWS Daily Summary

Daily Weather History Graph

Daily Weather History Graph

Search for Another Location

Airport or City:

Trip Planner

Search our weather history database for the weather conditions in past years. The results will help you decide how hot, cold, wet, or windy it might be!

Date:

Astronomy

Nov. 22, 2010 Rise Set
Actual Time 7:14 AM CST 4:43 PM CST
Civil Twilight 6:43 AM CST 5:14 PM CST
Nautical Twilight 6:08 AM CST 5:49 PM CST
Astronomical Twilight 5:34 AM CST 6:23 PM CST
Moon 5:23 PM CST (11/22) 8:20 AM CST (11/22)
Length of Visible Light 10h 31m
Length of Day
9h 28m
Full, 99% of the Moon is Illuminated
Nov 22
Full
Nov 28
Last Quarter
Dec 5
New
Dec 13
First Quarter
Dec 21
Full

Hourly Weather History & Observations

Time (CST) Temp. Windchill Dew Point Humidity Pressure Visibility Wind Dir Wind Speed Gust Speed Precip Events Conditions
12:53 AM 32.0 °F 24.8 °F 30.0 °F 92% 29.88 in 8.0 mi North 8.1 mph - N/A   Overcast
1:53 AM 30.9 °F 22.2 °F 30.0 °F 96% 29.85 in 7.0 mi NNE 10.4 mph - N/A   Overcast
2:53 AM 30.9 °F 22.8 °F 30.0 °F 96% 29.84 in 5.0 mi NE 9.2 mph - N/A   Overcast
3:53 AM 32.0 °F 25.6 °F 30.0 °F 92% 29.83 in 6.0 mi NE 6.9 mph - N/A   Overcast
4:39 AM 32.0 °F 23.6 °F 30.2 °F 93% 29.79 in 3.0 mi ENE 10.4 mph - N/A   Overcast
4:53 AM 30.9 °F 22.2 °F 30.9 °F 100% 29.81 in 2.0 mi ENE 10.4 mph - N/A   Overcast
5:38 AM 32.0 °F 23.6 °F 30.2 °F 93% 29.75 in 1.8 mi East 10.4 mph - N/A   Overcast
5:46 AM 32.0 °F 23.6 °F 30.2 °F 93% 29.75 in 2.0 mi East 10.4 mph - N/A   Overcast
5:53 AM 32.0 °F 22.5 °F 30.9 °F 96% 29.77 in 2.5 mi East 12.7 mph - N/A   Overcast
6:10 AM 32.0 °F 23.6 °F 30.2 °F 93% 29.74 in 3.0 mi East 10.4 mph - N/A   Overcast
6:36 AM 32.0 °F 25.6 °F 32.0 °F 100% 29.74 in 2.5 mi East 6.9 mph - N/A   Overcast
6:53 AM 32.0 °F 27.5 °F 32.0 °F 100% 29.78 in 2.0 mi NE 4.6 mph - N/A   Overcast
7:12 AM 32.0 °F 28.7 °F 32.0 °F 100% 29.75 in 1.2 mi NNE 3.5 mph - 0.00 in   Overcast
7:29 AM 32.0 °F 26.4 °F 32.0 °F 100% 29.74 in 1.0 mi NNE 5.8 mph - 0.00 in Rain Light Freezing Rain
7:41 AM 32.0 °F 26.4 °F 32.0 °F 100% 29.74 in 1.2 mi NNE 5.8 mph - 0.00 in Rain Light Freezing Rain
7:53 AM 32.0 °F 25.6 °F 32.0 °F 100% 29.75 in 1.2 mi NNE 6.9 mph - 0.01 in   Overcast
8:03 AM 32.0 °F 25.6 °F 32.0 °F 100% 29.72 in 0.8 mi NNE 6.9 mph - N/A   Overcast
8:53 AM 33.1 °F 26.1 °F 32.0 °F 96% 29.74 in 0.8 mi NNE 8.1 mph - 0.00 in Rain Light Rain
8:58 AM 32.0 °F 24.8 °F 32.0 °F 100% 29.71 in 0.8 mi NE 8.1 mph - 0.00 in Rain Light Freezing Rain
9:08 AM 33.8 °F 27.7 °F 32.0 °F 93% 29.71 in 1.0 mi NNE 6.9 mph - 0.00 in Rain Light Freezing Rain
9:27 AM 32.0 °F 24.8 °F 32.0 °F 100% 29.71 in 1.2 mi North 8.1 mph - 0.00 in   Overcast
9:53 AM 33.1 °F 25.5 °F 32.0 °F 96% 29.72 in 1.0 mi North 9.2 mph - 0.00 in   Overcast
10:04 AM 33.8 °F 25.8 °F 32.0 °F 93% 29.71 in 1.0 mi North 10.4 mph - 0.00 in Rain Light Freezing Rain
10:22 AM 33.8 °F 26.4 °F 32.0 °F 93% 29.71 in 1.2 mi NNW 9.2 mph - 0.01 in Rain Light Rain
10:36 AM 33.8 °F 26.4 °F 32.0 °F 93% 29.71 in 1.2 mi NNW 9.2 mph - N/A Rain Light Freezing Rain
10:53 AM 33.1 °F 23.9 °F 32.0 °F 96% 29.73 in 1.2 mi NNW 12.7 mph - 0.01 in Rain Light Rain
11:15 AM 33.8 °F 25.3 °F 32.0 °F 93% 29.71 in 2.0 mi NNW 11.5 mph - 0.00 in   Overcast
11:50 AM 33.8 °F 24.8 °F 32.0 °F 93% 29.71 in 1.8 mi NW 12.7 mph - 0.00 in   Overcast
11:53 AM 33.1 °F 23.9 °F 32.0 °F 96% 29.73 in 1.8 mi NW 12.7 mph - 0.00 in   Overcast
12:03 PM 33.8 °F 24.8 °F 32.0 °F 93% 29.72 in 2.0 mi NW 12.7 mph - N/A   Overcast
12:15 PM 33.8 °F 23.2 °F 32.0 °F 93% 29.71 in 1.8 mi NW 17.3 mph - N/A   Overcast
12:26 PM 33.8 °F 24.8 °F 30.2 °F 87% 29.71 in 2.5 mi NW 12.7 mph - N/A   Overcast
12:34 PM 33.8 °F 24.3 °F 32.0 °F 93% 29.71 in 3.0 mi NW 13.8 mph - N/A   Overcast
12:53 PM 32.0 °F 21.6 °F 30.9 °F 96% 29.73 in 9.0 mi NW 15.0 mph - N/A   Overcast
1:53 PM 30.0 °F 17.5 °F 28.9 °F 96% 29.77 in 10.0 mi WNW 19.6 mph - N/A   Overcast
2:53 PM 28.9 °F 17.3 °F 27.0 °F 92% 29.79 in 9.0 mi WNW 16.1 mph - N/A   Overcast
3:53 PM 27.0 °F 14.7 °F 25.0 °F 92% 29.81 in 8.0 mi NW 16.1 mph - N/A   Overcast
4:53 PM 25.0 °F 10.6 °F 21.9 °F 88% 29.86 in 10.0 mi WNW 20.7 mph 24.2 mph N/A   Overcast
5:48 PM 24.8 °F 9.3 °F 19.4 °F 80% 29.86 in 10.0 mi WNW 24.2 mph 29.9 mph N/A   Overcast
5:53 PM 24.1 °F 9.4 °F 19.9 °F 84% 29.90 in 10.0 mi WNW 20.7 mph 29.9 mph N/A   Overcast
6:53 PM 23.0 °F 8.3 °F 19.0 °F 85% 29.95 in 10.0 mi NW 19.6 mph - N/A   Overcast
7:21 PM 23.0 °F 10.6 °F 17.6 °F 80% 29.93 in 10.0 mi NW 13.8 mph - N/A   Overcast
7:53 PM 23.0 °F 11.1 °F 18.0 °F 81% 29.97 in 10.0 mi WNW 12.7 mph - N/A   Overcast
8:53 PM 21.9 °F 9.2 °F 18.0 °F 85% 30.00 in 10.0 mi WNW 13.8 mph - N/A   Overcast
9:15 PM 21.2 °F 7.3 °F 17.6 °F 86% 29.97 in 10.0 mi WNW 16.1 mph - N/A   Overcast
9:53 PM 21.9 °F 8.2 °F 16.0 °F 78% 30.01 in 10.0 mi WNW 16.1 mph 23.0 mph N/A   Overcast
10:40 PM 21.2 °F 6.4 °F 15.8 °F 80% 29.99 in 10.0 mi WNW 18.4 mph 26.5 mph N/A   Overcast
10:53 PM 21.0 °F 6.2 °F 15.1 °F 78% 30.02 in 10.0 mi NW 18.4 mph - N/A   Overcast
11:53 PM 19.9 °F 5.2 °F 15.1 °F 81% 30.04 in 10.0 mi WNW 17.3 mph 27.6 mph N/A   Overcast